« Back
NWS Peachtree City, Ga » Text Product » GA Regional Weather Roundup


Printer-friendly Version
Current Version              Previous Versions:   1  2  3  4  5  6  7  8  9  

Regional Weather Roundup

519
ASUS42 KFFC 230903
RWRGA
WEATHER ROUNDUP FOR GEORGIA
NATIONAL WEATHER SERVICE PEACHTREE CITY GA
500 AM EDT WED APR 23 2014

NOTE: "FAIR" INDICATES FEW OR NO CLOUDS BELOW 12,000 FEET WITH NO
SIGNIFICANT WEATHER AND/OR OBSTRUCTIONS TO VISIBILITY.

* = USE WITH CAUTION. THE STATIONS MARKED WITH AN ASTERISK MAY NOT
REPORT WEATHER SUCH AS PRECIPITATION, FOG, OR THUNDER AND ARE NOT
QUALITY CONTROLLED BY NWS.

THE REMARK "TC" DENOTES TEMPERATURE READING IN DEGREES CELSIUS.

GAZ001>058-231000-
NORTH GEORGIA

CITY           SKY/WX    TMP DP  RH WIND       PRES   REMARKS
ATLANTA        CLEAR     59  56  89 NW10      29.86R
ATHENS         CLEAR     59  58  96 W5        29.83R FOG
CHAMBLEE       CLEAR     58  55  90 NW6       29.86R
PEACHTREE CITY PTCLDY    56  55  97 W5        29.88R FOG
ROME           CLEAR     54  50  86 NW7       29.89R
WEST ATLANTA   CLEAR     59  56  89 NW3       29.87R
GAINESVILLE    CLEAR     58  55  90 W6        29.86R
CARTERSVILLE   PTCLDY    54  53  97 CALM      29.89S FOG


CITY           SKY/WX    TMP DP  RH WIND       PRES   REMARKS
DALTON*        CLEAR     46  46 100 CALM      29.91R
MARIETTA       CLEAR     60  54  80 NW9       29.87R
$$

GAZ059>098-102>109-231000-
CENTRAL GEORGIA

CITY           SKY/WX    TMP DP  RH WIND       PRES   REMARKS
AUGUSTA-BUSH   FOG       52  51  97 S3        29.80S VSB 1/4
AUGUSTA-DANIEL CLEAR     62  59  90 W3        29.80S
COLUMBUS       CLEAR     58  57  97 CALM      29.87R FOG
MACON          FOG       56  56 100 CALM      29.85R VSB 1/4
ROBINS AFB     FOG       57  57 100 CALM      29.84S VSB 1/4


CITY           SKY/WX    TMP DP  RH WIND       PRES   REMARKS
LAGRANGE*      CLOUDY    59  59 100 N3        29.88R FOG
SYLVANIA*      CLEAR     63  60  91 CALM      29.82R FOG
MILLEDGEVILLE* CLEAR     61 N/A N/A CALM      29.84R
$$

GAZ099>101-110>166-231000-
SOUTH GEORGIA

CITY           SKY/WX    TMP DP  RH WIND       PRES   REMARKS
SAVANNAH       PTCLDY    62  59  90 W8        29.82R FOG
VALDOSTA       MOCLDY    61  57  87 CALM      29.87R FOG
ALMA           CLEAR     61  58  90 W3        29.85R FOG
ST SIMONS      LGT RAIN  64  61  90 W7        29.84S
FT STEWART     CLEAR     61  61 100 SW6       29.82R
ALBANY         FOG       61  60  97 CALM      29.90R VSB 1/2
HUNTER AFB     CLEAR     60  60 100 W5        29.80S
MOODY AFB      CLOUDY    64  63  99 W5        29.87R
BRUNSWICK      CLEAR     63  61  94 W5        29.85S


CITY           SKY/WX    TMP DP  RH WIND       PRES   REMARKS
BAINBRIDGE*    PTCLDY    64  63  94 CALM      29.88S
MOULTRIE*      CLEAR     63  63 100 CALM      29.88S
VIDALIA*       CLEAR     61  59  94 CALM      29.83F FOG
DOUGLAS*         N/A     61  61 100 CALM      29.87S
$$



USA.gov is the U.S. government's official web portal to all federal, state and local government web resources and services.